Home > Weather > Yuma > Past weeks

Flag for USA Past Weather in Yuma, Arizona, USA — Yesterday and Last 2 Weeks

Now
98 °F

Sunny.


Feels Like: 97 °F
Forecast: 77 / 100 °F
Wind: 3 mph from North

Location: Yuma Marine Corps Air Station

Current Time: Aug 27, 2016 at 3:33:43 PM

Latest Report: Aug 27, 2016 at 2:57 PM


Visibility: 10 mi

Pressure: 29.78 "Hg

Humidity: 24%

Dew Point: 56 °F

Location of YumaLocation

Past Weather in Yuma — Graph

°F

Yuma Temperature Yesterday

Maximum temperature yesterday: 101 °F (at 3:57 PM)
Minimum temperature yesterday: 82 °F (at 4:57 AM)
Average temperature yesterday: 90 °F

High & Low Weather Summary for the Past Weeks

 TemperatureHumidityPressure
High113 °F (Aug 15, 3:57 PM)82% (Aug 26, 6:57 AM)29.93 "Hg (Aug 26, 6:57 AM)
Low78 °F (Aug 27, 5:57 AM)10% (Aug 16, 3:57 PM)29.64 "Hg (Aug 16, 5:57 PM)
Average95 °F39%29.77 "Hg
* Reported Aug 12 1:57 PM — Aug 27 1:57 PM, Yuma, Weather by CustomWeather, © 2016

Note: Actual official high and low records may vary slightly from our data, if they occured in-between our weather recording intervals... More about our weather records

Advertising

Yuma Weather History for the Previous 24 Hours

Scroll right to see more
 ConditionsComfort  
Time TempWeatherWind HumidityBarometerVisibility
1:57 PM
Sat, Aug 27
98 °FSunny.6 mph25%29.81 "Hg10 mi
12:57 PM97 °FSunny.N/A24%29.83 "Hg10 mi
11:57 AM94 °FSunny.No wind25%29.85 "Hg10 mi
10:57 AM93 °FSunny.8 mph25%29.86 "Hg10 mi
9:57 AM92 °FSunny.10 mph31%29.86 "Hg10 mi
8:57 AM89 °FSunny.8 mph34%29.85 "Hg10 mi
7:57 AM83 °FSunny.6 mph38%29.84 "Hg10 mi
6:57 AM83 °FSunny.6 mph41%29.82 "Hg10 mi
5:57 AM78 °FClear.No wind50%29.80 "Hg10 mi
4:57 AM84 °FClear.6 mph38%29.78 "Hg10 mi
3:57 AM85 °FClear.9 mph43%29.76 "Hg10 mi
2:57 AM84 °FClear.8 mph49%29.76 "Hg10 mi
1:57 AM85 °FClear.3 mph46%29.76 "Hg10 mi
12:57 AM85 °FClear.3 mph46%29.77 "Hg10 mi
11:57 PM
Fri, Aug 26
85 °FClear.8 mph45%29.77 "Hg10 mi
10:57 PM85 °FPassing clouds.5 mph31%29.78 "Hg10 mi
9:57 PM87 °FPassing clouds.5 mph32%29.77 "Hg10 mi
8:57 PM89 °FPassing clouds.9 mph28%29.76 "Hg10 mi
7:57 PM92 °FPassing clouds.7 mph24%29.74 "Hg10 mi
6:57 PM95 °FScattered clouds.10 mph21%29.73 "Hg10 mi
5:57 PM98 °FScattered clouds.13 mph20%29.73 "Hg10 mi
4:57 PM101 °FScattered clouds.16 mph20%29.73 "Hg10 mi
3:57 PM101 °FScattered clouds.17 mph21%29.74 "Hg10 mi
Weather by CustomWeather, © 2016

See weather overviewHow to use our weather pages